• In Deutschland
  • Länderverzeichnis
  • Für 7 Tage
  • Wassertemperatur
  • Satellitenkarten
  • Wetterkarte
  • Widgets
  • user-avatar
    Anmelden

    Stündliche Wetter Mayrhofen

    Heute, 19 Januar, Freitag

    Zeit Temperatur Niederschläge Wind Luftdruck Luftfeuchtigkeit
    00:00 -4°C° 0,2 mm 2 m/S 608 mmHg 88%
    01:00 -4°C° 0 mm 2 m/S 607 mmHg 91%
    02:00 -4°C° 0,8 mm 2 m/S 607 mmHg 92%
    03:00 -4°C° 0,8 mm 2 m/S 607 mmHg 92%
    04:00 -4°C° 0,8 mm 2 m/S 607 mmHg 93%
    05:00 -4°C° 1,3 mm 2 m/S 607 mmHg 93%
    06:00 -4°C° 1,3 mm 2 m/S 607 mmHg 94%
    07:00 -4°C° 0 mm 2 m/S 608 mmHg 95%
    08:00 -4°C° 1,1 mm 2 m/S 608 mmHg 95%
    09:00 -4°C° 1,1 mm 2 m/S 609 mmHg 95%
    10:00 -6°C° 1,1 mm 3 m/S 609 mmHg 95%
    11:00 -5°C° 0,4 mm 3 m/S 609 mmHg 92%
    12:00 -5°C° 0,4 mm 3 m/S 609 mmHg 89%
    13:00 -5°C° 0,4 mm 3 m/S 610 mmHg 86%
    14:00 -6°C° 0,1 mm 3 m/S 609 mmHg 87%
    15:00 -6°C° 0,1 mm 2 m/S 609 mmHg 88%
    16:00 -6°C° 0,1 mm 2 m/S 609 mmHg 89%
    17:00 -8°C° 0,1 mm 2 m/S 609 mmHg 89%
    18:00 -9°C° 0,1 mm 2 m/S 609 mmHg 90%
    19:00 -10°C° 0,1 mm 2 m/S 609 mmHg 90%
    20:00 -12°C° 0,1 mm 2 m/S 609 mmHg 88%
    21:00 -10°C° 0,1 mm 1 m/S 609 mmHg 86%
    22:00 -10°C° 0,1 mm 1 m/S 609 mmHg 85%
    23:00 -10°C° 0,2 mm 1 m/S 609 mmHg 85%

    Morgen, 20 Januar, Samstag

    Zeit Temperatur Niederschläge Wind Luftdruck Luftfeuchtigkeit
    00:00 -10°C° 0,2 mm 1 m/S 609 mmHg 86%
    01:00 -9°C° 0,2 mm 1 m/S 609 mmHg 87%
    02:00 -9°C° 0,2 mm 1 m/S 610 mmHg 89%
    03:00 -9°C° 0,2 mm 1 m/S 610 mmHg 90%
    04:00 -9°C° 0,2 mm 1 m/S 610 mmHg 92%
    05:00 -9°C° 0,1 mm 1 m/S 610 mmHg 91%
    06:00 -9°C° 0,1 mm 1 m/S 609 mmHg 91%
    07:00 -10°C° 0,1 mm 1 m/S 609 mmHg 90%
    08:00 -9°C° 0 mm 1 m/S 609 mmHg 88%
    09:00 -10°C° 0 mm 2 m/S 609 mmHg 86%
    10:00 -9°C° 0 mm 2 m/S 609 mmHg 84%
    11:00 -8°C° 0,1 mm 2 m/S 609 mmHg 80%
    12:00 -6°C° 0,1 mm 2 m/S 609 mmHg 76%
    13:00 -5°C° 0,1 mm 2 m/S 609 mmHg 72%
    14:00 -6°C° 0 mm 2 m/S 608 mmHg 77%
    15:00 -6°C° 0 mm 2 m/S 608 mmHg 81%
    16:00 -6°C° 0 mm 2 m/S 607 mmHg 85%
    17:00 -7°C° 0,3 mm 2 m/S 606 mmHg 87%
    18:00 -8°C° 0,3 mm 2 m/S 606 mmHg 88%
    19:00 -10°C° 0,3 mm 3 m/S 605 mmHg 90%
    20:00 -9°C° 1 mm 2 m/S 605 mmHg 92%
    21:00 -9°C° 1 mm 2 m/S 605 mmHg 93%
    22:00 -9°C° 1 mm 2 m/S 605 mmHg 94%
    23:00 -8°C° 0,7 mm 2 m/S 605 mmHg 94%

    übermorgen, 21 Januar, Sonntag

    Zeit Temperatur Niederschläge Wind Luftdruck Luftfeuchtigkeit
    00:00 -8°C° 0,7 mm 2 m/S 606 mmHg 95%
    01:00 -7°C° 0,7 mm 1 m/S 606 mmHg 95%
    02:00 -6°C° 1 mm 1 m/S 606 mmHg 95%
    03:00 -7°C° 1 mm 2 m/S 606 mmHg 96%
    04:00 -6°C° 1 mm 2 m/S 606 mmHg 96%
    05:00 -6°C° 1,2 mm 2 m/S 607 mmHg 96%
    06:00 -6°C° 1,2 mm 2 m/S 607 mmHg 96%
    07:00 -5°C° 1,2 mm 2 m/S 607 mmHg 96%
    08:00 -5°C° 1,6 mm 2 m/S 608 mmHg 96%
    09:00 -5°C° 1,6 mm 2 m/S 608 mmHg 96%
    10:00 -5°C° 1,6 mm 2 m/S 609 mmHg 96%
    11:00 -5°C° 1,6 mm 2 m/S 609 mmHg 96%
    12:00 -5°C° 1,6 mm 2 m/S 609 mmHg 96%
    13:00 -5°C° 1,6 mm 2 m/S 609 mmHg 96%
    14:00 -5°C° 1,6 mm 2 m/S 610 mmHg 96%
    15:00 -5°C° 1,6 mm 2 m/S 610 mmHg 96%
    16:00 -3°C° 1,6 mm 1 m/S 610 mmHg 96%
    17:00 -4°C° 1,4 mm 1 m/S 610 mmHg 95%
    18:00 -4°C° 1,4 mm 1 m/S 610 mmHg 95%
    19:00 -4°C° 1,4 mm 1 m/S 611 mmHg 95%
    20:00 -4°C° 1,6 mm 1 m/S 611 mmHg 95%
    21:00 -3°C° 1,6 mm 1 m/S 611 mmHg 95%
    22:00 -3°C° 1,6 mm 1 m/S 612 mmHg 95%
    23:00 -3°C° 2 mm 1 m/S 612 mmHg 95%

    22 Januar, Montag

    Zeit Temperatur Niederschläge Wind Luftdruck Luftfeuchtigkeit
    00:00 -2°C° 2 mm 1 m/S 612 mmHg 96%
    01:00 -2°C° 2 mm 1 m/S 612 mmHg 96%
    02:00 -1°C° 2,3 mm 1 m/S 612 mmHg 96%
    03:00 -1°C° 2,3 mm 1 m/S 612 mmHg 96%
    04:00 0°C° 2,3 mm 1 m/S 612 mmHg 96%
    05:00 0°C° 2,7 mm 1 m/S 613 mmHg 96%
    06:00 0°C° 2,7 mm 1 m/S 613 mmHg 96%
    07:00 -2°C° 2,7 mm 2 m/S 613 mmHg 96%
    08:00 -1°C° 2 mm 2 m/S 613 mmHg 96%
    09:00 -1°C° 2 mm 2 m/S 613 mmHg 96%
    10:00 +1°C° 2 mm 2 m/S 613 mmHg 97%
    11:00 +1°C° 1,9 mm 2 m/S 613 mmHg 97%
    12:00 +1°C° 1,9 mm 2 m/S 613 mmHg 98%
    13:00 +1°C° 1,9 mm 2 m/S 613 mmHg 99%
    14:00 +1°C° 1,4 mm 2 m/S 613 mmHg 98%
    15:00 +1°C° 1,4 mm 2 m/S 613 mmHg 98%
    16:00 +1°C° 1,4 mm 2 m/S 613 mmHg 98%
    17:00 +1°C° 0,1 mm 2 m/S 613 mmHg 97%
    18:00 -1°C° 0,1 mm 2 m/S 613 mmHg 96%
    19:00 -1°C° 0,1 mm 2 m/S 613 mmHg 95%
    20:00 -1°C° 0,2 mm 2 m/S 614 mmHg 95%
    21:00 -1°C° 0,2 mm 2 m/S 614 mmHg 95%
    22:00 -1°C° 0,2 mm 2 m/S 614 mmHg 95%
    23:00 -1°C° 0,6 mm 2 m/S 614 mmHg 94%

    23 Januar, Dienstag

    Zeit Temperatur Niederschläge Wind Luftdruck Luftfeuchtigkeit
    00:00 -2°C° 0,6 mm 2 m/S 614 mmHg 94%
    01:00 -2°C° 0,6 mm 2 m/S 614 mmHg 94%
    02:00 -2°C° 0,9 mm 2 m/S 615 mmHg 94%
    03:00 -1°C° 0,9 mm 2 m/S 615 mmHg 94%
    04:00 -1°C° 0,9 mm 2 m/S 616 mmHg 94%
    05:00 -1°C° 1,3 mm 2 m/S 616 mmHg 95%
    06:00 -1°C° 1,3 mm 2 m/S 617 mmHg 95%
    07:00 -1°C° 1,3 mm 2 m/S 618 mmHg 95%
    08:00 -1°C° 0,3 mm 2 m/S 618 mmHg 96%
    09:00 -1°C° 0,3 mm 2 m/S 619 mmHg 97%
    10:00 -1°C° 0,3 mm 2 m/S 620 mmHg 98%
    11:00 -1°C° 0 mm 2 m/S 620 mmHg 98%
    12:00 -1°C° 0 mm 2 m/S 620 mmHg 99%
    13:00 +1°C° 0 mm 2 m/S 620 mmHg 99%
    14:00 -1°C° 0 mm 2 m/S 620 mmHg 98%
    15:00 +1°C° 0 mm 1 m/S 620 mmHg 97%
    16:00 +1°C° 0 mm 1 m/S 620 mmHg 96%
    17:00 -1°C° 0 mm 1 m/S 620 mmHg 92%
    18:00 -2°C° 0 mm 1 m/S 620 mmHg 89%
    19:00 -3°C° 0 mm 1 m/S 620 mmHg 85%
    20:00 -4°C° 0 mm 1 m/S 620 mmHg 80%
    21:00 -4°C° 0 mm 1 m/S 621 mmHg 75%
    22:00 -4°C° 0 mm 1 m/S 621 mmHg 70%
    23:00 -4°C° 0 mm 1 m/S 621 mmHg 68%

    24 Januar, Mittwoch

    Zeit Temperatur Niederschläge Wind Luftdruck Luftfeuchtigkeit
    00:00 -4°C° 0 mm 1 m/S 621 mmHg 65%
    01:00 -4°C° 0 mm 1 m/S 621 mmHg 62%
    02:00 -4°C° 0 mm 1 m/S 621 mmHg 62%
    03:00 -4°C° 0 mm 1 m/S 621 mmHg 61%
    04:00 -4°C° 0 mm 1 m/S 621 mmHg 60%
    05:00 -4°C° 0 mm 1 m/S 621 mmHg 60%
    06:00 -4°C° 0 mm 1 m/S 621 mmHg 60%
    07:00 -4°C° 0 mm 1 m/S 621 mmHg 60%
    08:00 -2°C° 0 mm 1 m/S 622 mmHg 64%
    09:00 -1°C° 0 mm 1 m/S 622 mmHg 68%
    10:00 +1°C° 0 mm 1 m/S 623 mmHg 73%
    11:00 +2°C° 0 mm 1 m/S 623 mmHg 80%
    12:00 +1°C° 0 mm 2 m/S 623 mmHg 87%
    13:00 +2°C° 0 mm 2 m/S 623 mmHg 94%
    14:00 +1°C° 0 mm 2 m/S 622 mmHg 91%
    15:00 +1°C° 0 mm 2 m/S 622 mmHg 87%
    16:00 +1°C° 0 mm 2 m/S 622 mmHg 84%
    17:00 -2°C° 0 mm 2 m/S 622 mmHg 79%
    18:00 -3°C° 0 mm 2 m/S 621 mmHg 74%
    19:00 -4°C° 0 mm 2 m/S 621 mmHg 68%
    20:00 -4°C° 0 mm 2 m/S 621 mmHg 67%
    21:00 -5°C° 0 mm 2 m/S 621 mmHg 65%
    22:00 -5°C° 0 mm 2 m/S 621 mmHg 64%
    23:00 -5°C° 0 mm 2 m/S 620 mmHg 63%
    Mehr zeigen